Easton, MD

10:08 AM EDT on April 26, 2017 (GMT -0400)
Easton / Newnam

Weather History for KESN - September, 2013

Change the Weather History Date:

Saturday, September 7, 2013

  Actual Average Record
Temperature  
Mean Temperature 68 °F -  
Max Temperature 82 °F 83 °F 96 °F (1954)
Min Temperature 53 °F 59 °F 45 °F (1976)
Cooling Degree Days 2    
Growing Degree Days 18 (Base 50)    
Moisture  
Dew Point 57 °F    
Average Humidity 82    
Maximum Humidity 100    
Minimum Humidity 39    
Precipitation  
Precipitation 0.00 in - - ()
Sea Level Pressure  
Sea Level Pressure 30.12 in    
Wind  
Wind Speed 1 mph (West)    
Max Wind Speed 8 mph    
Max Gust Speed -    
Visibility 10 miles    
Events      
Averages and records for this station are not official NWS values.
T = Trace of Precipitation, MM = Missing Value Source: NWS Daily Summary

Daily Weather History Graph

Daily Weather History Graph

Search for Another Location

Airport or City:

Trip Planner

Search our weather history database for the weather conditions in past years. The results will help you decide how hot, cold, wet, or windy it might be!

Date:

Astronomy

Sep. 07, 2013 Rise Set
Actual Time 6:38 AM EDT 7:24 PM EDT
Civil Twilight 6:11 AM EDT 7:51 PM EDT
Nautical Twilight 5:39 AM EDT 8:23 PM EDT
Astronomical Twilight 5:06 AM EDT 8:56 PM EDT
Moon 8:48 AM EDT (9/7) 8:24 PM EDT (9/7)
Length of Visible Light 13h 39m
Length of Day
12h 46m
Waxing Crescent, 5% of the Moon is Illuminated
Sep 7
Waxing Crescent
Sep 12
First Quarter
Sep 19
Full
Sep 26
Last Quarter
Oct 4
New

Hourly Weather History & Observations

Time (EDT) Temp. Heat Index Dew Point Humidity Pressure Visibility Wind Dir Wind Speed Gust Speed Precip Events Conditions
12:02 AM 57.0 °F - 55.9 °F 96% 30.19 in 10.0 mi Calm Calm - N/A   Clear
12:22 AM 57.7 °F - 55.9 °F 94% 30.19 in 10.0 mi Calm Calm - N/A   Clear
12:42 AM 57.0 °F - 55.2 °F 94% 30.18 in 10.0 mi Calm Calm - N/A   Clear
1:02 AM 56.5 °F - 55.6 °F 97% 30.18 in 10.0 mi Calm Calm - N/A   Clear
1:22 AM 56.1 °F - 55.2 °F 97% 30.18 in 10.0 mi Calm Calm - N/A   Clear
1:42 AM 56.1 °F - 55.4 °F 97% 30.18 in 10.0 mi Calm Calm - N/A   Clear
2:02 AM 56.3 °F - 55.4 °F 97% 30.18 in 10.0 mi Calm Calm - N/A   Clear
2:22 AM 55.6 °F - 54.7 °F 97% 30.17 in 10.0 mi Calm Calm - N/A   Clear
2:42 AM 55.6 °F - 55.6 °F 100% 30.17 in 10.0 mi Calm Calm - N/A   Clear
3:02 AM 55.4 °F - 55.0 °F 99% 30.16 in 10.0 mi Calm Calm - N/A   Clear
3:22 AM 54.9 °F - 54.7 °F 99% 30.16 in 10.0 mi Calm Calm - N/A   Clear
3:42 AM 55.4 °F - 54.7 °F 97% 30.16 in 10.0 mi Calm Calm - N/A   Clear
4:02 AM 54.7 °F - 54.1 °F 98% 30.16 in 10.0 mi Calm Calm - N/A   Clear
4:22 AM 54.5 °F - 54.5 °F 100% 30.16 in 10.0 mi Calm Calm - N/A   Clear
4:42 AM 54.0 °F - 52.5 °F 95% 30.16 in 10.0 mi Calm Calm - N/A   Clear
5:02 AM 53.8 °F - 53.8 °F 100% 30.16 in 10.0 mi Calm Calm - N/A   Clear
5:22 AM 53.6 °F - 53.6 °F 100% 30.16 in 10.0 mi Calm Calm - N/A   Clear
5:42 AM 53.6 °F - 53.6 °F 100% 30.16 in 10.0 mi Calm Calm - N/A   Clear
5:53 AM 53.6 °F - 53.6 °F 100% 30.16 in 10.0 mi Calm Calm - N/A   Scattered Clouds
6:03 AM 53.8 °F - 53.8 °F 100% 30.16 in 10.0 mi Calm Calm - N/A   Clear
6:23 AM 54.0 °F - 54.0 °F 100% 30.15 in 10.0 mi Calm Calm - N/A   Scattered Clouds
6:43 AM 54.0 °F - 54.0 °F 100% 30.16 in 10.0 mi Calm Calm - N/A   Scattered Clouds
6:53 AM 55.4 °F - 55.4 °F 100% 30.16 in 10.0 mi Calm Calm - N/A   Mostly Cloudy
7:03 AM 55.4 °F - 55.4 °F 100% 30.16 in 10.0 mi Calm Calm - N/A   Scattered Clouds
7:23 AM 61.3 °F - 56.3 °F 83% 30.16 in 10.0 mi Calm Calm - N/A   Clear
7:43 AM 64.2 °F - 57.7 °F 79% 30.16 in 10.0 mi Calm Calm - N/A   Clear
7:53 AM 64.4 °F - 57.2 °F 77% 30.16 in 10.0 mi Calm Calm - N/A   Mostly Cloudy
8:50 AM 68.0 °F - 59.0 °F 73% 30.15 in 10.0 mi Calm Calm - N/A   Scattered Clouds
9:48 AM 73.4 °F - 60.8 °F 65% 30.15 in 10.0 mi WSW 5.8 mph - N/A   Scattered Clouds
10:52 AM 75.2 °F - 60.8 °F 61% 30.14 in 10.0 mi WSW 5.8 mph - N/A   Scattered Clouds
11:50 AM 77.0 °F - 57.2 °F 50% 30.13 in 10.0 mi West 6.9 mph - N/A   Scattered Clouds
12:03 PM 76.5 °F - 55.6 °F 48% 30.13 in 10.0 mi Calm Calm - N/A   Scattered Clouds
12:16 PM 78.8 °F - 55.9 °F 45% 30.13 in 10.0 mi Calm Calm - N/A   Clear
12:45 PM 80.6 °F 80.5 °F 55.4 °F 42% 30.11 in 10.0 mi NW 8.1 mph - N/A   Scattered Clouds
1:50 PM 80.6 °F 80.8 °F 57.2 °F 45% 30.08 in 10.0 mi WNW 6.9 mph - N/A   Partly Cloudy
2:50 PM 82.4 °F 81.7 °F 55.4 °F 39% 30.06 in 10.0 mi NNW 6.9 mph - N/A   Partly Cloudy
3:50 PM 82.4 °F 82.0 °F 57.2 °F 42% 30.03 in 10.0 mi WNW 4.6 mph - N/A   Partly Cloudy
4:45 PM 80.6 °F 81.1 °F 59.0 °F 48% 30.02 in 10.0 mi NNW 4.6 mph - N/A   Scattered Clouds
5:50 PM 80.6 °F 81.1 °F 59.0 °F 48% 30.01 in 10.0 mi WSW 6.9 mph - N/A   Scattered Clouds
6:50 PM 75.2 °F - 60.8 °F 61% 30.00 in 10.0 mi SW 6.9 mph - N/A   Scattered Clouds
7:50 PM 71.6 °F - 62.6 °F 73% 30.00 in 10.0 mi SW 6.9 mph - N/A   Partly Cloudy
8:55 PM 69.8 °F - 62.6 °F 78% 30.00 in 10.0 mi SW 4.6 mph - N/A   Partly Cloudy
11:04 PM 66.9 °F - 62.6 °F 86% 29.99 in 10.0 mi Calm Calm - N/A   Clear
11:24 PM 67.1 °F - 62.8 °F 86% 29.99 in 10.0 mi Calm Calm - N/A   Clear
11:45 PM 67.3 °F - 63.1 °F 87% 29.98 in 10.0 mi Calm Calm - N/A   Clear